Location: Beuvrequen
(50.8014°N, 1.6652°E)
Time: 14:01:06
(UTC+00:00)

Lacrosse 4 Rocket - Pass Details

Date: 31 May 2022
Orbit: 541 x 611 km, 68.0° (Epoch: 30 June)

Event Time Altitude Azimuth Distance (km) Brightness Sun altitude
Exits shadow 01:46:57 - 151° (SSE) 2,396 4.3 -12.9°
Reaches altitude 10° 01:49:05 10° 130° (SE) 1,888 3.9 -12.8°
Maximum altitude 01:50:51 12° 106° (ESE) 1,728 4.0 -12.7°
Drops below altitude 10° 01:52:37 10° 81° (E) 1,876 4.6 -12.5°
Sets 01:55:59 0° 52° (NE) 2,762 6.3 -12.3°
